YMA7489 UAAA-UTTT

Flight info

Callsign YMA7489
Flight time N/A
Altitude 32000
Route UAAA EKLAT Z370 AGLEK TAR KOLAM Z580 BAMUT UTTT
Aircraft B738/M-VGDW/C

Departure

Time 2026-05-05 09:15
Airport Almaty International Airport (UAAA)

Arrival

Time N/A
Airport UTTT
Time Latitude Longitude Altitude Speed Heading
2026-05-05 08:53 43.35028 77.01245 2228 ft 0 kts 256°
2026-05-05 09:06 43.35030 77.01259 2227 ft 2 kts 257°
2026-05-05 09:06 43.35035 77.01281 2226 ft 2 kts 241°
2026-05-05 09:06 43.35045 77.01297 2225 ft 2 kts 208°
2026-05-05 09:07 43.35060 77.01305 2227 ft 2 kts 185°
2026-05-05 09:07 43.35065 77.01306 2227 ft 0 kts 179°
2026-05-05 09:07 43.35064 77.01306 2227 ft 1 kts 179°
2026-05-05 09:07 43.35051 77.01308 2226 ft 3 kts 167°
2026-05-05 09:08 43.35026 77.01309 2228 ft 4 kts 181°
2026-05-05 09:08 43.34995 77.01320 2226 ft 5 kts 162°
2026-05-05 09:08 43.34964 77.01335 2226 ft 5 kts 161°
2026-05-05 09:08 43.34932 77.01351 2225 ft 5 kts 159°
2026-05-05 09:09 43.34904 77.01372 2225 ft 5 kts 140°
2026-05-05 09:09 43.34880 77.01401 2226 ft 5 kts 140°
2026-05-05 09:09 43.34854 77.01424 2227 ft 4 kts 149°
2026-05-05 09:09 43.34828 77.01445 2226 ft 4 kts 149°
2026-05-05 09:10 43.34802 77.01466 2226 ft 4 kts 149°
2026-05-05 09:10 43.34777 77.01486 2225 ft 4 kts 152°
2026-05-05 09:10 43.34750 77.01498 2225 ft 4 kts 171°
2026-05-05 09:10 43.34723 77.01499 2228 ft 4 kts 179°
2026-05-05 09:11 43.34696 77.01499 2226 ft 4 kts 182°
2026-05-05 09:11 43.34699 77.01499 2226 ft 1 kts 182°
2026-05-05 09:11 43.34681 77.01498 2226 ft 5 kts 182°
2026-05-05 09:11 43.34648 77.01495 2226 ft 5 kts 185°
2026-05-05 09:12 43.34616 77.01490 2227 ft 6 kts 193°
2026-05-05 09:12 43.34578 77.01477 2227 ft 6 kts 189°
2026-05-05 09:12 43.34541 77.01489 2226 ft 6 kts 155°
2026-05-05 09:12 43.34505 77.01516 2226 ft 7 kts 152°
2026-05-05 09:13 43.34461 77.01548 2224 ft 7 kts 152°
2026-05-05 09:13 43.34437 77.01566 2228 ft 5 kts 153°
2026-05-05 09:13 43.34323 77.01627 2227 ft 23 kts 153°
2026-05-05 09:13 43.34210 77.01705 2227 ft 16 kts 152°
2026-05-05 09:14 43.34167 77.01826 2227 ft 15 kts 71°
2026-05-05 09:14 43.34264 77.02029 2227 ft 61 kts 56°
2026-05-05 09:14 43.34696 77.02898 2224 ft 155 kts 55°
2026-05-05 09:14 43.35457 77.04397 2250 ft 220 kts 54°
2026-05-05 09:15 43.36321 77.06094 3355 ft 224 kts 55°
2026-05-05 09:15 43.37262 77.08031 3831 ft 259 kts 57°
2026-05-05 09:15 43.38413 77.09998 4301 ft 266 kts 45°
2026-05-05 09:15 43.39836 77.11603 4767 ft 270 kts 30°
2026-05-05 09:16 43.41525 77.12717 5312 ft 268 kts 18°
2026-05-05 09:16 43.43363 77.13244 5909 ft 271 kts
2026-05-05 09:16 43.45260 77.13167 6504 ft 274 kts 350°
2026-05-05 09:16 43.47106 77.12518 7098 ft 277 kts 336°
2026-05-05 09:17 43.48789 77.11240 7710 ft 277 kts 323°
2026-05-05 09:17 43.50194 77.09399 8305 ft 280 kts 311°
2026-05-05 09:17 43.51252 77.07143 8892 ft 282 kts 294°
2026-05-05 09:17 43.51982 77.04632 9536 ft 284 kts 288°
2026-05-05 09:18 43.52547 77.02000 10177 ft 288 kts 286°
2026-05-05 09:18 43.53109 76.99347 10802 ft 298 kts 286°
2026-05-05 09:18 43.53708 76.96547 11398 ft 311 kts 286°
2026-05-05 09:18 43.54309 76.93623 11967 ft 323 kts 281°
2026-05-05 09:19 43.54277 76.90476 12398 ft 337 kts 255°
2026-05-05 09:19 43.53140 76.87613 12875 ft 347 kts 228°
2026-05-05 09:19 43.51408 76.85247 13524 ft 353 kts 225°
2026-05-05 09:19 43.49707 76.82764 14162 ft 359 kts 229°
2026-05-05 09:20 43.48071 76.80128 14745 ft 364 kts 231°
2026-05-05 09:20 43.46482 76.77397 15284 ft 366 kts 232°
2026-05-05 09:20 43.44948 76.74638 15804 ft 369 kts 233°
2026-05-05 09:20 43.43416 76.71787 16317 ft 372 kts 234°
2026-05-05 09:21 43.41891 76.68888 16813 ft 375 kts 234°
2026-05-05 09:21 43.40354 76.65964 17263 ft 378 kts 234°
2026-05-05 09:21 43.38823 76.63014 17695 ft 380 kts 235°
2026-05-05 09:21 43.37305 76.60022 18125 ft 382 kts 235°
2026-05-05 09:22 43.35791 76.57002 18546 ft 385 kts 236°
2026-05-05 09:22 43.34289 76.53930 18974 ft 388 kts 236°
2026-05-05 09:22 43.32797 76.50877 19382 ft 391 kts 236°
2026-05-05 09:22 43.31276 76.47766 19793 ft 393 kts 236°
2026-05-05 09:23 43.29722 76.44664 20206 ft 395 kts 235°
2026-05-05 09:23 43.28223 76.41481 20607 ft 398 kts 245°
2026-05-05 09:23 43.27522 76.37813 20952 ft 401 kts 265°
2026-05-05 09:23 43.27460 76.33994 21429 ft 400 kts 270°
2026-05-05 09:24 43.27480 76.30153 21853 ft 406 kts 270°
2026-05-05 09:24 43.27494 76.26255 22222 ft 409 kts 270°
2026-05-05 09:24 43.27509 76.22393 22603 ft 410 kts 270°
2026-05-05 09:24 43.27524 76.18474 22980 ft 412 kts 270°
2026-05-05 09:25 43.27535 76.14528 23358 ft 415 kts 270°
2026-05-05 09:25 43.27511 76.10550 23741 ft 418 kts 269°
2026-05-05 09:25 43.27475 76.06551 24110 ft 420 kts 269°
2026-05-05 09:25 43.27443 76.02530 24484 ft 422 kts 271°
2026-05-05 09:26 43.27880 75.98535 24819 ft 425 kts 285°
2026-05-05 09:26 43.28742 75.94641 25226 ft 427 kts 287°
2026-05-05 09:26 43.29639 75.90750 25592 ft 430 kts 287°
2026-05-05 09:26 43.30540 75.86817 25951 ft 433 kts 287°
2026-05-05 09:27 43.31427 75.82910 26301 ft 434 kts 287°
2026-05-05 09:27 43.32292 75.78925 26652 ft 436 kts 286°
2026-05-05 09:27 43.33156 75.74915 27004 ft 438 kts 286°
2026-05-05 09:27 43.34027 75.70878 27351 ft 441 kts 286°
2026-05-05 09:28 43.34904 75.66822 27702 ft 444 kts 286°
2026-05-05 09:28 43.35789 75.62739 28044 ft 446 kts 286°
2026-05-05 09:28 43.36651 75.58692 28378 ft 448 kts 285°
2026-05-05 09:28 43.37488 75.54553 28719 ft 450 kts 285°
2026-05-05 09:29 43.38277 75.50375 29060 ft 453 kts 284°
2026-05-05 09:29 43.39067 75.46177 29394 ft 455 kts 284°
2026-05-05 09:29 43.39868 75.41947 29725 ft 458 kts 284°
2026-05-05 09:29 43.40675 75.37690 30052 ft 460 kts 284°
2026-05-05 09:30 43.41479 75.33425 30379 ft 462 kts 284°
2026-05-05 09:30 43.42275 75.29130 30704 ft 464 kts 284°
2026-05-05 09:30 43.43041 75.24805 31029 ft 466 kts 283°
2026-05-05 09:30 43.43799 75.20458 31355 ft 468 kts 283°
2026-05-05 09:31 43.44595 75.16110 31660 ft 469 kts 284°
2026-05-05 09:31 43.45413 75.11799 31931 ft 471 kts 284°
2026-05-05 09:31 43.46252 75.07395 31993 ft 477 kts 284°
2026-05-05 09:32 43.47877 74.98466 31998 ft 480 kts 283°
2026-05-05 09:32 43.49440 74.89607 32000 ft 479 kts 283°
2026-05-05 09:33 43.50958 74.80647 31984 ft 481 kts 277°
2026-05-05 09:33 43.50876 74.76049 31971 ft 480 kts 261°
2026-05-05 09:33 43.50183 74.71543 32015 ft 479 kts 256°
2026-05-05 09:34 43.48546 74.62695 32008 ft 480 kts 256°
2026-05-05 09:34 43.46975 74.53775 32001 ft 479 kts 257°
2026-05-05 09:35 43.45683 74.46281 32000 ft 480 kts 257°
2026-05-05 09:35 43.43382 74.32951 32001 ft 477 kts 257°
2026-05-05 09:36 43.41845 74.24038 32001 ft 477 kts 257°
2026-05-05 09:36 43.40326 74.15229 32000 ft 477 kts 257°
2026-05-05 09:37 43.38794 74.06336 32001 ft 476 kts 257°
2026-05-05 09:37 43.37268 73.97469 31999 ft 476 kts 257°
2026-05-05 09:38 43.35757 73.88673 32000 ft 475 kts 257°
2026-05-05 09:38 43.34230 73.79821 32000 ft 476 kts 257°
2026-05-05 09:39 43.32712 73.70977 32000 ft 476 kts 257°
2026-05-05 09:39 43.31187 73.62116 32001 ft 476 kts 257°
2026-05-05 09:40 43.29661 73.53337 32001 ft 475 kts 256°
2026-05-05 09:40 43.28034 73.44525 32000 ft 476 kts 256°
2026-05-05 09:41 43.26397 73.35716 32001 ft 476 kts 256°
2026-05-05 09:41 43.24804 73.26948 32001 ft 475 kts 257°
2026-05-05 09:42 43.23286 73.18104 32000 ft 476 kts 256°
2026-05-05 09:42 43.21677 73.09281 32001 ft 476 kts 256°
2026-05-05 09:43 43.20053 73.00520 32001 ft 476 kts 256°
2026-05-05 09:43 43.18427 72.91717 32000 ft 476 kts 256°
2026-05-05 09:44 43.16799 72.82918 32001 ft 476 kts 256°
2026-05-05 09:44 43.15169 72.74112 32000 ft 476 kts 256°
2026-05-05 09:45 43.13547 72.65315 32000 ft 476 kts 256°
2026-05-05 09:45 43.11930 72.56585 32001 ft 476 kts 256°
2026-05-05 09:46 43.10307 72.47778 32000 ft 476 kts 256°
2026-05-05 09:46 43.08681 72.38980 32000 ft 476 kts 256°
2026-05-05 09:47 43.06978 72.30223 32001 ft 476 kts 255°
2026-05-05 09:47 43.05254 72.21517 32000 ft 476 kts 255°
2026-05-05 09:48 43.03606 72.12723 32000 ft 476 kts 256°
2026-05-05 09:48 43.01977 72.03942 32000 ft 476 kts 255°
2026-05-05 09:49 43.00255 71.95204 32000 ft 476 kts 255°
2026-05-05 09:49 42.98535 71.86522 32001 ft 476 kts 255°
2026-05-05 09:50 42.96795 71.77762 32001 ft 477 kts 255°
2026-05-05 09:50 42.95065 71.69028 32000 ft 477 kts 255°
2026-05-05 09:51 42.93333 71.60264 32001 ft 478 kts 255°
2026-05-05 09:51 42.91599 71.51509 32001 ft 477 kts 255°
2026-05-05 09:52 42.89876 71.42825 32000 ft 476 kts 255°
2026-05-05 09:52 42.88152 71.34092 32000 ft 476 kts 255°
2026-05-05 09:53 42.86437 71.25361 31989 ft 476 kts 251°
2026-05-05 09:53 42.83952 71.16989 32003 ft 476 kts 247°
2026-05-05 09:54 42.81401 71.08720 32000 ft 476 kts 248°
2026-05-05 09:54 42.78907 71.00349 32000 ft 476 kts 248°
2026-05-05 09:55 42.76412 70.91958 32000 ft 478 kts 248°
2026-05-05 09:55 42.73906 70.83549 32001 ft 479 kts 248°
2026-05-05 09:56 42.71415 70.75196 32000 ft 479 kts 248°
2026-05-05 09:56 42.68908 70.66786 32000 ft 479 kts 248°
2026-05-05 09:57 42.66400 70.58381 32000 ft 479 kts 248°
2026-05-05 09:57 42.63910 70.50040 32000 ft 479 kts 248°
2026-05-05 09:58 42.61219 70.41916 32029 ft 471 kts 236°
2026-05-05 09:58 42.56689 70.35447 32060 ft 472 kts 225°
2026-05-05 09:59 42.51911 70.29300 32046 ft 473 kts 225°
2026-05-05 09:59 42.47216 70.23134 32043 ft 471 kts 226°
2026-05-05 10:00 42.42537 70.16919 32039 ft 470 kts 226°
2026-05-05 10:00 42.37871 70.10685 32033 ft 470 kts 227°
2026-05-05 10:01 42.33281 70.04408 32034 ft 469 kts 227°
2026-05-05 10:01 42.28690 69.98211 32028 ft 469 kts 226°
2026-05-05 10:02 42.24006 69.92061 32026 ft 469 kts 226°
2026-05-05 10:02 42.19320 69.85876 30569 ft 480 kts 227°
2026-05-05 10:03 42.17008 69.82589 28871 ft 485 kts 229°
2026-05-05 10:03 42.14700 69.79218 27193 ft 489 kts 229°
2026-05-05 10:03 42.12413 69.75877 25637 ft 491 kts 229°
2026-05-05 10:03 42.10053 69.72534 24154 ft 493 kts 227°
2026-05-05 10:04 42.07599 69.69292 22566 ft 494 kts 226°
2026-05-05 10:04 42.05139 69.66147 20950 ft 476 kts 225°
2026-05-05 10:04 42.02832 69.63236 19347 ft 444 kts 225°
2026-05-05 10:04 42.00660 69.60511 17889 ft 403 kts 223°
2026-05-05 10:05 41.98656 69.57993 16279 ft 385 kts 224°
2026-05-05 10:05 41.96797 69.55603 14799 ft 345 kts 226°
2026-05-05 10:05 41.95087 69.53488 13966 ft 314 kts 217°
2026-05-05 10:05 41.93164 69.52512 13855 ft 296 kts 186°
2026-05-05 10:06 41.91118 69.53038 13811 ft 310 kts 156°
2026-05-05 10:06 41.89438 69.54850 13859 ft 311 kts 136°
2026-05-05 10:06 41.87897 69.56893 13968 ft 313 kts 140°
2026-05-05 10:06 41.86161 69.58630 13974 ft 310 kts 157°
2026-05-05 10:07 41.84092 69.59260 13918 ft 303 kts 178°
2026-05-05 10:07 41.82014 69.59437 13978 ft 303 kts 178°
2026-05-05 10:07 41.79897 69.59651 14029 ft 304 kts 178°
2026-05-05 10:07 41.77784 69.59869 14010 ft 304 kts 178°
2026-05-05 10:08 41.75713 69.60611 13648 ft 310 kts 160°
2026-05-05 10:08 41.73737 69.61662 13346 ft 302 kts 163°
2026-05-05 10:08 41.71719 69.62418 13047 ft 301 kts 169°
2026-05-05 10:08 41.69666 69.62909 12743 ft 297 kts 174°
2026-05-05 10:09 41.67618 69.63167 12445 ft 295 kts 179°
2026-05-05 10:09 41.65596 69.63236 12149 ft 293 kts 182°
2026-05-05 10:09 41.63566 69.63156 11833 ft 291 kts 185°
2026-05-05 10:09 41.61561 69.62955 11536 ft 287 kts 187°
2026-05-05 10:10 41.59573 69.62662 11259 ft 287 kts 188°
2026-05-05 10:10 41.57599 69.62302 10971 ft 284 kts 190°
2026-05-05 10:10 41.55661 69.61885 10466 ft 280 kts 191°
2026-05-05 10:10 41.53758 69.61468 10078 ft 274 kts 191°
2026-05-05 10:11 41.51916 69.60994 9801 ft 264 kts 193°
2026-05-05 10:11 41.50149 69.60509 9352 ft 264 kts 193°
2026-05-05 10:11 41.48312 69.60009 8613 ft 270 kts 193°
2026-05-05 10:11 41.46448 69.59504 7364 ft 279 kts 192°
2026-05-05 10:12 41.44485 69.59034 5911 ft 292 kts 190°
2026-05-05 10:12 41.42462 69.58665 4689 ft 292 kts 188°
2026-05-05 10:12 41.40483 69.58216 3739 ft 284 kts 193°
2026-05-05 10:12 41.38772 69.57660 3859 ft 228 kts 196°
2026-05-05 10:13 41.37236 69.57095 4021 ft 233 kts 196°
2026-05-05 10:13 41.35684 69.56553 4010 ft 227 kts 196°
2026-05-05 10:13 41.34170 69.56050 3992 ft 219 kts 196°
2026-05-05 10:13 41.32687 69.55554 4024 ft 223 kts 195°
2026-05-05 10:14 41.31175 69.55029 4001 ft 220 kts 197°
2026-05-05 10:14 41.29815 69.54274 3953 ft 211 kts 221°
2026-05-05 10:14 41.29117 69.52635 3977 ft 208 kts 256°
2026-05-05 10:14 41.28838 69.50740 4051 ft 208 kts 257°
2026-05-05 10:15 41.28533 69.48885 4006 ft 200 kts 257°
2026-05-05 10:15 41.28207 69.47144 4005 ft 189 kts 254°
2026-05-05 10:15 41.27890 69.45473 4009 ft 185 kts 256°
2026-05-05 10:15 41.27622 69.43847 3901 ft 178 kts 257°
2026-05-05 10:16 41.27383 69.42261 3599 ft 170 kts 258°
2026-05-05 10:16 41.27164 69.40768 3357 ft 163 kts 257°
2026-05-05 10:16 41.26961 69.39318 3134 ft 152 kts 258°
2026-05-05 10:16 41.26792 69.37977 2887 ft 144 kts 258°
2026-05-05 10:17 41.26633 69.36683 2634 ft 137 kts 260°
2026-05-05 10:17 41.26489 69.35441 2414 ft 135 kts 258°
2026-05-05 10:17 41.26343 69.34203 2163 ft 135 kts 261°
2026-05-05 10:17 41.26196 69.32976 1922 ft 133 kts 261°
2026-05-05 10:18 41.26061 69.31758 1664 ft 131 kts 261°
2026-05-05 10:18 41.25932 69.30585 1437 ft 124 kts 261°
2026-05-05 10:18 41.25811 69.29562 1403 ft 98 kts 259°
2026-05-05 10:18 41.25735 69.28825 1403 ft 63 kts 263°
2026-05-05 10:19 41.25690 69.28398 1411 ft 41 kts 261°
2026-05-05 10:19 41.25643 69.27985 1408 ft 47 kts 261°
2026-05-05 10:19 41.25686 69.27691 1413 ft 32 kts 319°
2026-05-05 10:19 41.25849 69.27498 1403 ft 32 kts 317°
2026-05-05 10:20 41.25995 69.27322 1403 ft 26 kts 319°
2026-05-05 10:20 41.26111 69.27181 1409 ft 20 kts 308°
2026-05-05 10:20 41.26097 69.27025 1404 ft 17 kts 240°
2026-05-05 10:20 41.26075 69.26893 1408 ft 13 kts 297°
2026-05-05 10:21 41.26149 69.26828 1409 ft 13 kts 328°
2026-05-05 10:21 41.26167 69.26812 1404 ft 0 kts 326°